Location: Bakhuizen
(52.8696°N, 5.4575°E)
Time: 12:19:42
(UTC+00:00)

Cosmos 1833 - Pass Details

Date: 01 October 2021
Orbit: 835 x 864 km, 70.9° (Epoch: 16 October)

Event Time Altitude Azimuth Distance (km) Brightness Sun altitude
Rises 18:07:17 0° 327° (NNW) 3,401 8.0 -8.7°
Reaches altitude 10° 18:09:45 10° 324° (NW) 2,460 7.3 -9.1°
Maximum altitude 18:15:18 63° 245° (WSW) 933 4.7 -9.9°
Drops below altitude 10° 18:20:49 10° 165° (SSE) 2,442 6.4 -10.8°
Sets 18:23:16 0° 162° (SSE) 3,374 7.1 -11.1°
